Probability
0 0 0 0 0 0 0 0 0 0 0 0 0 0 0 0 0 0 0 0 0 0 0 0 0 0 0 0 0 0 0 0 0 0 0 0 0 0 0 0 0 0 0 0
0 0 0 0 0 0 0 0 0 0 0 0 0 0 0 0 0 0 0 0 0 0 0 0 0 0 0 0 0 0 0 0 0 0 0 0 0 0 0 0 0 0 0 0
0 0 0 0 0 0 0 0 0 0 0 0 0 0 0 0 0 0 0 0 0 0 0 0 0 0 0 0 0 0 0 0 0 0 0 0 0 0 0 0 0 0 0 0
0 0 0 0 0 0 0 0 0 0 0 0 0 0 0 0 0 0 0 0 0 0 0 0 0 0 0 0 0 0 0 0 0 0 0 0 0 0 0 0 0 0 0 0
0 0 0 0 0 0 0 0 0 0 0 0 0 0 0 0 0 0 0 0 0 0 0 0 0 0 0 0 0 0 0 0 0 0 0 0 0 0 0 0 0 0 0 0
0 0 0 0 0 0 0 0 0 0 0 0 0 0 0 0 0 0 0 0 0 0 0 0 0 0 0 0 0 0 0 0 0 0 0 0 0 0 0 0 0 0 0 0
0 0 0 0 0 0 0 0 0 0 0 0 0 0 0 0 0 0 0 0 0 0 0 0 0 0 0 0 0 0 0 0 0 0 0 0 0 0 0 0 0 0 0 0
0 0 0 0 0 0 0 0 0 0 0 0 0 0 0 0 0 0 0 0 0 0 0 0 0 0 0 0 0 0 0 0 0 0 0 0 0 0 0 0 0 0 0 0
0 0 0 0 0 0 0 0 0 0 0 0 0 0 0 0 0 0 0 0 0 0 0 0 0 0 0 0 0 0 0 0 0 0 0 0 0 0 0 0 0 0 0 0
0 0 0 0 0 0 0 0 0 0 0 0 0 0 0 0 0 0 0 0 0 0 0 0 0 0 0 0 0 0 0 0 0 0 0 0 0 0 0 0 0 0 0 0
0 0 0 0 0 0 0 0 0 0 0 0 0 0 0 0 0 0 0 0 0 0 0 0 0 0 0 0 0 0 0 0 0 0 0 0 0 0 0 0 0 0 0 0
0 0 0 0 0 0 0 0 0 0 0 0 0 0 0 0 0 0 0 0 0 0 0 0 0 0 0 0 0 0 0 0 0 0 0 0 0 0 0 0 0 0 0 0
0 0 0 0 0 0 0 0 0 0 0 0 0 0 0 0 0 0 0 0 0 0 0 0 0 0 0 0 0 0 0 0 0 0 0 0 0 0 0 0 0 0 0 0
0 0 0 0 0 0 0 0 0 0 0 0 0 0 0 0 0 0 0 0 0 0 0 0 0 0 0 0 0 0 0 0 0 0 0 0 0 0 0 0 0 0 0 0
0 0 0 0 0 0 0 0 0 0 0 0 0 0 0 0 0 0 0 0 0 0 0 0 0 0 0 0 0 0 0 0 0 0 0 0 0 0 0 0 0 0 0 0
0 0 0 0 0 0 0 0 0 0 0 0 0 0 0 0 0 0 0 0 0 0 0 0 0 0 0 0 0 0 0 0 0 0 0 0 0 0 0 0 0 0 0 0
0 0 0 0 0 0 0 0 0 0 0 0 0 0 0 0 0 0 0 0 0 0 0 0 0 0 0 0 0 0 0 0 0 0 0 0 0 0 0 0 0 0 0 0
0 0 0 0 0 0 0 0 0 0 0 0 0 0 0 0 0 0 0 0 0 0 0 0 0 0 0 0 0 0 0 0 0 0 0 0 0 0 0 0 0 0 0 0
0 0 0 0 0 0 0 0 0 0 0 0 0 0 0 0 0 0 0 0 0 0 0 0 0 0 0 0 0 0 0 0 0 0 0 0 0 0 0 0 0 0 0 0
0 0 0 0 0 0 0 0 0 0 0 0 0 0 0 0 0 0 0 0 0 0 0 0 0 0 0 0 0 0 0 0 0 0 0 0 0 0 0 0 0 0 0 0
0 0 0 0 0 0 0 0 0 0 0 0 0 0 0 0 0 0 0 0 0 0 0 0 0 0 0 0 0 0 0 0 0 0 0 0 0 0 0 0 0 0 0 0
0 0 0 0 0 0 0 0 0 0 0 0 0 0 0 0 0 0 0 0 0 0 0 0 0 0 0 0 0 0 0 0 0 0 0 0 0 0 0 0 0 0 0 0
0 0 0 0 0 0 0 0 0 0 0 0 0 0 0 0 0 0 0 0 0 0 0 0 0 0 0 0 0 0 0 0 0 0 0 0 0 0 0 0 0 0 0 0
0 0 0 0 0 0 0 0 0 0 0 0 0 0 0 0 0 0 0 0 0 0 0 0 0 0 0 0 0 0 0 0 0 0 0 0 0 0 0 0 0 0 0 0
0 0 0 0 0 0 0 0 0 0 0 0 0 0 0 0 0 0 0 0 0 0 0 0 0 0 0 0 0 0 0 0 0 0 0 0 0 0 0 0 0 0 0 0
0 0 0 0 0 0 0 0 0 0 0 0 0 0 0 0 0 0 0 0 0 0 0 0 0 0 0 0 0 0 0 0 0 0 0 0 0 0 0 0 0 0 0 0
Wind_Speed
3 4 6 11 9 5 5 5 5 6 3 4 8 12 14 6 7 11 12 12 14 19 13 8 10 9 8 8 8 9 9 9 8 5 4 5 4 3 3 3 4 6 7 8
4 6 10 4 3 3 4 4 5 5 2 4 7 12 12 9 10 12 14 15 16 15 10 10 11 11 12 12 11 11 11 11 10 5 4 4 4 4 3 3 4 5 6 7
11 6 4 7 5 6 5 7 7 6 3 3 4 11 8 9 7 8 11 13 13 17 17 13 14 15 14 15 15 13 12 12 10 8 6 6 5 4 3 3 3 3 5 5
7 4 5 5 8 10 8 9 8 4 2 6 2 8 9 7 7 10 14 14 18 18 16 12 14 15 18 17 13 12 12 12 11 11 10 11 8 6 6 5 4 5 5 6
10 7 8 9 10 12 7 3 5 4 4 5 3 5 12 4 9 12 15 17 18 17 14 13 15 16 13 12 12 12 12 13 12 12 12 11 8 6 6 7 8 6 5 5
5 5 7 8 3 7 7 7 6 5 3 8 8 9 13 9 12 11 12 14 15 12 9 10 9 9 10 11 12 13 14 14 14 13 13 11 11 12 13 11 10 7 5 4
4 4 4 4 7 4 5 6 2 3 2 12 5 9 16 11 12 12 13 13 10 5 5 7 9 11 13 15 16 15 16 15 14 14 14 11 12 15 17 16 13 11 7 4
7 9 10 9 10 11 9 12 11 9 8 8 4 13 13 8 8 9 11 12 9 7 6 8 10 12 13 15 16 16 17 15 15 15 13 11 12 11 10 13 13 12 9 7
11 10 3 7 4 14 8 8 6 5 2 6 10 11 12 7 10 13 14 11 13 10 8 8 8 10 12 14 16 17 16 14 14 14 13 12 12 11 10 11 9 9 8 8
9 6 2 2 2 2 7 9 6 7 7 9 11 9 9 9 15 14 10 11 13 8 6 7 7 9 10 10 11 12 13 13 12 13 13 11 12 11 11 11 11 10 10 10
8 8 2 3 11 12 8 7 7 6 6 8 8 14 11 13 12 11 12 11 10 7 6 6 7 7 8 8 10 12 12 11 12 13 12 12 12 11 12 12 12 12 11 12
9 6 6 9 6 4 8 11 11 9 8 6 6 18 5 9 8 8 9 8 5 4 4 5 6 7 8 10 11 13 13 13 13 13 13 13 13 13 14 13 13 12 12 12
10 7 3 5 3 3 6 7 9 6 6 7 10 19 1 0 3 5 8 8 6 4 4 4 6 8 10 12 12 14 14 14 12 13 14 14 15 15 16 15 14 13 13 12
8 7 11 15 9 9 8 9 10 10 9 13 21 26 8 3 5 7 8 9 7 6 6 7 8 9 11 12 13 14 15 14 13 14 15 16 17 17 16 15 15 14 14 14
8 9 12 15 10 7 9 10 13 18 20 18 24 26 26 11 11 11 10 9 8 8 8 10 11 11 11 12 13 14 15 15 15 16 17 17 15 15 15 15 15 14 14 14
9 10 11 17 19 13 10 11 16 22 20 25 25 34 25 8 9 11 12 12 12 11 12 13 12 12 14 16 16 16 17 17 16 18 17 15 15 15 16 16 15 15 14 12
7 8 10 18 18 9 18 25 25 17 15 14 25 38 21 12 14 16 16 14 14 15 14 13 13 14 16 17 17 19 18 15 16 16 14 14 15 16 16 16 16 16 16 13
9 9 7 10 13 25 17 15 21 24 26 21 19 24 20 14 12 12 13 12 13 13 13 12 11 13 14 14 14 13 11 13 15 14 14 14 15 16 15 16 16 16 13 14
17 15 11 10 19 17 11 10 11 16 22 24 28 30 28 15 8 18 13 11 14 12 11 11 11 11 10 11 12 11 12 13 15 16 16 16 16 16 17 18 17 13 13 12
20 19 16 15 17 13 13 7 9 10 17 18 18 24 26 13 12 20 5 6 8 7 6 6 6 6 7 8 10 13 13 14 17 16 13 12 13 15 16 16 13 10 11 11
13 17 22 23 22 12 8 3 10 12 13 5 10 17 17 14 16 8 3 2 3 4 5 5 5 4 4 5 10 11 12 14 11 9 10 11 11 11 11 10 9 10 10 10
9 10 14 15 19 15 6 8 12 9 2 3 4 5 6 7 4 3 2 2 4 4 5 4 2 2 1 4 9 9 9 7 9 10 10 10 10 9 9 11 10 10 11 11
10 9 6 8 8 4 6 8 6 3 4 4 4 3 3 3 3 2 1 2 2 3 4 3 2 4 4 3 5 7 6 9 10 10 10 10 10 9 9 11 11 10 10 9
7 5 6 7 9 7 6 5 4 4 4 4 3 2 3 3 2 2 1 1 2 3 3 3 4 5 4 4 5 6 8 10 11 11 10 10 10 10 9 8 9 9 10 10
7 5 6 8 7 4 6 7 6 5 4 3 2 1 2 2 2 2 1 0 1 2 2 3 4 5 5 5 6 6 7 10 11 10 9 9 9 9 9 7 7 9 8 10
5 7 7 7 5 5 5 3 5 7 6 5 4 2 1 2 2 2 2 1 2 2 3 4 5 6 6 6 6 5 5 8 10 9 8 7 6 6 6 6 5 8 7 12
Wind_Direction
52 101 197 206 194 174 163 176 218 246 232 192 237 255 266 245 221 246 248 243 242 246 246 211 200 193 191 192 190 185 176 168 158 149 146 138 124 105 87 83 99 119 128 130
74 239 226 166 155 150 152 189 241 275 244 206 260 267 261 245 223 226 233 238 239 244 241 214 199 195 196 195 193 188 185 178 178 168 144 130 123 111 96 92 89 104 122 131
184 219 171 149 161 180 204 204 218 233 331 276 291 293 267 264 236 245 239 239 240 237 239 221 204 203 199 199 195 192 187 182 179 161 135 115 103 104 113 116 105 97 116 123
223 214 135 161 189 171 230 218 206 207 247 279 209 281 282 260 264 251 248 243 243 242 238 223 204 204 205 202 190 188 183 182 178 168 167 165 163 162 168 152 137 121 116 124
225 189 175 195 202 175 203 148 159 172 195 271 223 241 272 271 264 254 246 244 243 241 231 223 210 208 203 189 185 185 181 183 180 179 179 180 166 143 137 135 136 130 122 123
241 196 197 206 157 158 132 86 72 58 93 264 206 201 263 217 224 240 242 243 245 245 232 223 204 187 185 181 184 185 185 186 182 182 183 186 167 153 150 153 152 147 138 130
259 236 217 149 103 126 139 112 49 309 262 250 180 211 250 225 222 225 239 249 252 248 229 211 191 189 188 187 189 189 188 188 184 184 186 186 174 168 166 163 163 159 157 159
199 247 204 188 170 167 188 164 178 204 226 267 204 232 251 245 257 264 262 265 278 263 232 217 203 196 194 191 191 192 192 188 183 185 186 181 176 176 174 170 166 167 167 159
193 237 226 200 177 149 170 217 177 146 231 280 259 262 291 266 266 256 254 261 265 261 236 222 206 198 195 193 194 194 192 187 185 185 181 179 179 180 175 169 164 162 155 151
171 228 257 168 131 232 161 152 129 165 201 249 267 250 242 225 230 237 243 247 254 255 234 219 206 198 194 193 191 191 191 188 181 181 181 181 181 178 171 167 167 163 158 153
177 201 222 153 196 190 153 174 179 174 182 190 267 265 211 211 219 223 232 236 244 251 235 219 205 191 183 179 183 189 189 184 182 182 180 176 177 174 171 174 173 168 162 159
188 172 226 228 230 208 198 193 170 179 218 206 239 267 194 214 230 226 238 244 244 241 228 212 194 178 180 185 188 192 193 191 186 181 179 178 177 176 177 178 175 170 167 166
158 167 221 302 250 203 221 216 199 187 163 194 222 264 14 210 257 250 253 262 259 244 221 201 193 192 194 195 195 196 196 193 184 179 180 179 181 182 183 179 175 173 170 167
168 173 200 220 215 181 201 212 196 187 211 230 235 253 252 242 271 270 259 257 253 237 219 211 212 210 205 201 200 199 199 192 184 183 184 186 187 185 183 178 176 176 173 171
178 205 222 241 234 192 200 205 201 208 220 229 245 253 253 215 231 244 250 254 248 239 227 221 220 215 208 206 205 203 201 194 188 188 191 192 185 182 179 178 177 175 175 176
195 211 217 241 241 224 231 228 217 220 228 237 251 259 257 223 225 240 245 246 248 245 237 231 225 217 211 209 207 204 203 197 189 194 196 187 181 180 180 179 175 174 175 172
204 204 213 241 241 227 234 231 227 224 219 215 238 254 262 240 231 236 242 241 242 244 243 237 227 220 217 212 206 205 203 190 190 195 191 184 181 181 181 176 175 177 176 171
223 222 232 247 239 239 239 229 222 227 234 226 237 254 255 238 241 244 241 239 243 243 244 242 234 228 223 214 206 201 185 184 190 193 190 185 181 180 176 176 179 179 175 176
223 229 238 240 247 252 255 235 198 213 241 231 233 248 259 255 274 267 247 231 243 247 243 243 240 236 224 207 196 180 180 183 188 194 192 185 180 177 176 180 181 176 173 176
216 220 232 239 246 240 238 229 179 169 242 240 222 239 252 249 251 264 265 238 255 267 268 266 265 249 227 204 174 173 181 184 194 194 186 176 176 178 180 180 174 168 170 173
205 214 225 236 246 248 246 190 135 183 236 246 207 225 239 233 237 269 354 329 320 307 300 295 280 255 231 179 161 173 179 192 185 162 156 162 169 171 168 163 160 159 159 158
208 216 223 229 238 241 196 151 185 214 215 212 219 225 232 240 265 300 323 328 336 329 325 327 326 338 40 145 155 166 178 162 138 141 148 153 155 154 153 154 153 156 159 161
214 211 215 221 237 247 181 201 220 202 214 217 210 217 206 221 240 258 294 338 350 352 350 1 56 60 52 88 134 146 141 130 131 135 140 142 143 144 150 155 156 158 163 167
239 217 217 237 248 245 233 240 239 221 221 222 206 203 198 211 215 213 242 346 6 13 13 31 73 78 63 66 90 117 127 130 132 136 139 142 146 149 152 157 161 167 173 178
224 197 217 239 254 277 259 233 230 222 220 220 213 200 209 203 205 191 179 83 41 37 30 58 85 91 81 80 85 100 123 131 133 136 140 145 150 154 159 163 174 178 185 189
209 201 208 234 225 216 246 251 209 205 212 204 192 190 187 186 175 142 122 91 78 69 66 77 83 89 84 83 82 83 110 128 133 136 143 147 148 150 152 152 148 183 181 197